Weather in Novologinovo

Russia / Omsk Oblast     56°34′49″N   74°36′55″E
temp.,
°C
wind,
m/s
gust,
m/s
humid.,
%
clouds,
%
prec.,
mm/h
press.,
hPa
HPBL,
m
6 march, sat
sat600:00−2sw71492100 0.4 1004808
03:00−3ssw71396100 0.4 1002684
06:00−4ssw81494100 2.0 1000798
09:00−1ssw91695100 1.3 9961019
12:00−1wsw11158798 1.5 9971135
15:00−3wsw101482100 0.1 10011190
18:00−7wsw81386100 0.2 1005751
21:00−11wsw6148898 0.0 1007452
7 march, sun
sun700:00−12wsw5129262 0.0 1009297
03:00−14sw5109545 0.0 1010196
06:00−15sw5119546 0.0 1013211
09:00−15wsw5129457 0.0 1014277
12:00−11wsw589064 0.0 1016451
15:00−8sw468568 0.0 1016485
18:00−10sse369483 0.0 1015172
21:00−10se51090100 0.0 1013298
8 march, mon
mon800:00−8se91694100 1.3 1007668
03:000s91697100 2.4 1000983
06:000ssw111897100 4.4 9961059
09:00−6wsw111785100 0.9 997604
12:00−8w91386100 0.9 1003862
15:00−8w81287100 0.0 1006800
18:00−9wsw61187100 0.1 1010750
21:00−12wsw51289100 0.0 1012463
9 march, tue
tue900:00−13sw41091100 0.0 1014348
03:00−16ssw499580 0.0 1014196
06:00−15ssw5109488 0.1 1014304
09:00−15s51093100 0.1 1013317
12:00−11s7119195 0.1 1012523
15:00−8ssw71291100 0.1 1011654
18:00−7ssw71293100 0.6 1009733
21:00−7ssw61392100 0.7 1008664
10 march, wed
wed1000:00−7sw4995100 0.8 1008277
03:00−9sw4109597 0.1 1009268
06:00−13sw359795 0.2 101179
09:00−13ssw3597100 0.0 1011120
12:00−8ssw4694100 0.1 1011343
15:00−6sw4689100 0.0 1010517
18:00−7sw2392100 0.0 100840
21:00−10wsw2393100 0.0 100823